This is the latest recevied weather packets stored in our database for station/object W8LMG. If no packets are shown the sender has not sent any weather packets the latest 1 day(s).
| Time | Temp. | Humidity | Pressure | Rain* | Wind** | Luminosity | Snow |
|---|---|---|---|---|---|---|---|
| 1778044067 | 13.89° C | 80% | 1012.1 hPa | 0 mm | - | 0 W/m² | - |
| 1778043461 | 13.89° C | 79% | 1012.4 hPa | 0 mm | - | 0 W/m² | - |
| 1778042855 | 13.89° C | 80% | 1012.6 hPa | 0 mm | - | 0 W/m² | - |
| 1778042552 | 13.89° C | 79% | 1012.5 hPa | 0 mm | - | 0 W/m² | - |
| 1778042250 | 13.89° C | 80% | 1012.5 hPa | 0 mm | - | 0 W/m² | - |
| 1778041947 | 13.89° C | 81% | 1012.4 hPa | 0 mm | - | 0 W/m² | - |
| 1778041646 | 13.89° C | 81% | 1012.4 hPa | 0 mm | - | 0 W/m² | - |
| 1778041344 | 13.89° C | 80% | 1012.4 hPa | 0 mm | - | 0 W/m² | - |
| 1778041042 | 13.89° C | 80% | 1012.2 hPa | 0 mm | - | 0 W/m² | - |
| 1778040739 | 13.89° C | 81% | 1012.2 hPa | 0 mm | - | 0 W/m² | - |
| 1778040436 | 13.89° C | 80% | 1012.3 hPa | 0 mm | - | 0 W/m² | - |
| 1778040133 | 13.89° C | 79% | 1012.3 hPa | 0 mm | - | 0 W/m² | - |
| 1778039527 | 13.89° C | 78% | 1012.4 hPa | 0 mm | - | 0 W/m² | - |
| 1778038921 | 13.89° C | 77% | 1012.3 hPa | 0 mm | - | 0 W/m² | - |
| 1778038618 | 13.89° C | 76% | 1012.3 hPa | 0 mm | - | 0 W/m² | - |
| 1778038315 | 14.44° C | 74% | 1012.4 hPa | 0 mm | - | 0 W/m² | - |
| 1778038012 | 14.44° C | 77% | 1012.5 hPa | 0 mm | - | 0 W/m² | - |
| 1778037709 | 14.44° C | 69% | 1012.3 hPa | 0 mm | - | 0 W/m² | - |
| 1778037405 | 14.44° C | 69% | 1012.2 hPa | 0 mm | - | 0 W/m² | - |
| 1778037102 | 14.44° C | 70% | 1012.5 hPa | 0 mm | - | 0 W/m² | - |
| 1778036801 | 14.44° C | 69% | 1012.4 hPa | 0 mm | - | 0 W/m² | - |
| 1778036498 | 15° C | 69% | 1012.5 hPa | 0 mm | - | 0 W/m² | - |
| 1778036195 | 15° C | 68% | 1012.8 hPa | 0 mm | - | 0 W/m² | - |
| 1778035589 | 16.11° C | 58% | 1012.7 hPa | 0 mm | - | 0 W/m² | - |
| 1778035284 | 16.67° C | 58% | 1012.7 hPa | 0 mm | - | 0 W/m² | - |
* Rain latest hour (hover to see other rain measurements)
** Current wind speed in m/s (hover to see current wind gust speed)